Time,TemperatureF,DewpointF,PressureIn,WindDirection,WindDirectionDegrees,WindSpeedMPH,WindSpeedGustMPH,Humidity,HourlyPrecipIn,Conditions,Clouds,dailyrainin,SoftwareType,DateUTC
2013-06-07 00:01:00,58.0,55.4,30.08,NNE,31,0.0,0.0,91,0.02,,-RA,0.02,VWS V13.01,2013-06-07 04:01:00,
2013-06-07 00:04:00,57.9,55.3,30.08,NNE,31,0.0,0.0,91,0.02,,-RA,0.00,VWS V13.01,2013-06-07 04:04:00,
2013-06-07 00:09:00,57.7,55.4,30.08,NNE,31,0.0,0.0,92,0.02,,-RA,0.00,VWS V13.01,2013-06-07 04:09:00,
2013-06-07 00:14:00,57.6,55.6,30.08,NNE,31,0.0,0.0,93,0.02,,-RA,0.00,VWS V13.01,2013-06-07 04:14:00,
2013-06-07 00:19:00,57.4,55.4,30.07,NNE,31,0.0,0.0,93,0.03,,-RA,0.01,VWS V13.01,2013-06-07 04:19:00,
2013-06-07 00:24:00,57.3,55.3,30.07,NNE,31,0.0,0.0,93,0.03,,-RA,0.01,VWS V13.01,2013-06-07 04:24:00,
2013-06-07 00:29:00,57.2,55.5,30.07,NNE,31,0.0,0.0,94,0.04,,-RA,0.02,VWS V13.01,2013-06-07 04:29:00,
2013-06-07 00:34:00,57.1,55.4,30.07,NNE,31,0.0,0.0,94,0.04,,-RA,0.02,VWS V13.01,2013-06-07 04:34:00,
2013-06-07 00:39:00,57.1,55.4,30.07,NNE,31,0.0,0.0,94,0.04,,-RA,0.02,VWS V13.01,2013-06-07 04:39:00,
2013-06-07 00:44:00,57.0,55.6,30.07,NNE,31,0.0,0.0,95,0.04,,-RA,0.02,VWS V13.01,2013-06-07 04:44:00,
2013-06-07 00:49:00,57.0,55.6,30.06,NNE,31,0.0,0.0,95,0.05,,-RA,0.03,VWS V13.01,2013-06-07 04:49:00,
2013-06-07 00:54:00,56.9,55.5,30.06,NNE,31,0.0,0.0,95,0.05,,-RA,0.03,VWS V13.01,2013-06-07 04:54:00,
2013-06-07 00:59:00,56.9,55.8,30.07,NNE,31,0.0,0.0,96,0.05,,-RA,0.03,VWS V13.01,2013-06-07 04:59:00,
2013-06-07 01:04:00,56.9,55.8,30.06,NNE,31,0.0,0.0,96,0.03,,-RA,0.03,VWS V13.01,2013-06-07 05:04:00,
2013-06-07 01:09:00,56.9,55.8,30.06,NNE,31,0.0,0.0,96,0.03,,-RA,0.03,VWS V13.01,2013-06-07 05:09:00,
2013-06-07 01:14:00,57.0,55.9,30.06,NNE,31,0.0,0.0,96,0.03,,-RA,0.03,VWS V13.01,2013-06-07 05:14:00,
2013-06-07 01:20:00,57.0,55.9,30.06,NNE,31,0.0,0.0,96,0.04,,-RA,0.04,VWS V13.01,2013-06-07 05:20:00,
2013-06-07 01:25:00,57.1,56.3,30.06,NNE,31,0.0,0.0,97,0.04,,-RA,0.04,VWS V13.01,2013-06-07 05:25:00,
2013-06-07 01:30:00,57.0,55.9,30.05,NNE,31,0.0,0.0,96,0.04,,-RA,0.04,VWS V13.01,2013-06-07 05:30:00,
2013-06-07 01:35:00,57.0,55.9,30.06,NNE,31,0.0,0.0,96,0.02,,-RA,0.04,VWS V13.01,2013-06-07 05:35:00,
2013-06-07 01:40:00,57.0,55.9,30.06,NNE,31,0.0,0.0,96,0.02,,-RA,0.04,VWS V13.01,2013-06-07 05:40:00,
2013-06-07 01:45:00,56.9,55.8,30.06,NNE,31,0.0,0.0,96,0.02,,-RA,0.04,VWS V13.01,2013-06-07 05:45:00,
2013-06-07 01:50:00,56.8,55.7,30.06,NNE,31,0.0,0.0,96,0.02,,-RA,0.04,VWS V13.01,2013-06-07 05:50:00,
2013-06-07 01:55:00,56.8,56.0,30.06,NNE,31,0.0,0.0,97,0.02,,-RA,0.04,VWS V13.01,2013-06-07 05:55:00,
2013-06-07 02:00:00,56.7,55.9,30.06,NNE,31,0.0,0.0,97,0.02,,-RA,0.04,VWS V13.01,2013-06-07 06:00:00,
2013-06-07 02:05:00,56.7,55.9,30.06,NNE,31,0.0,0.0,97,0.01,,-RA,0.04,VWS V13.01,2013-06-07 06:05:00,
2013-06-07 02:10:00,56.6,55.8,30.06,NNE,31,0.0,0.0,97,0.01,,-RA,0.04,VWS V13.01,2013-06-07 06:10:00,
2013-06-07 02:15:00,56.5,55.7,30.05,NNE,31,0.0,0.0,97,0.01,,-RA,0.04,VWS V13.01,2013-06-07 06:15:00,
2013-06-07 02:20:00,56.5,55.7,30.05,NNE,31,0.0,0.0,97,0.01,,-RA,0.04,VWS V13.01,2013-06-07 06:20:00,
2013-06-07 02:25:00,56.4,55.6,30.05,NNE,31,0.0,0.0,97,0.01,,-RA,0.04,VWS V13.01,2013-06-07 06:25:00,
2013-06-07 02:30:00,56.4,55.6,30.04,NNE,31,0.0,0.0,97,0.01,,-RA,0.04,VWS V13.01,2013-06-07 06:30:00,
2013-06-07 02:35:00,56.4,55.6,30.04,NNE,31,0.0,0.0,97,0.00,,-RA,0.04,VWS V13.01,2013-06-07 06:35:00,
2013-06-07 02:40:00,56.4,55.6,30.04,NNE,31,0.0,0.0,97,0.00,,-RA,0.04,VWS V13.01,2013-06-07 06:40:00,
2013-06-07 02:45:00,56.3,55.8,30.03,NNE,31,0.0,0.0,98,0.00,,-RA,0.04,VWS V13.01,2013-06-07 06:45:00,
2013-06-07 02:51:00,56.4,55.8,30.03,NNE,31,0.0,0.0,98,0.00,,-RA,0.04,VWS V13.01,2013-06-07 06:51:00,
2013-06-07 02:56:00,56.3,55.5,30.03,NNE,31,0.0,0.0,97,0.00,,-RA,0.04,VWS V13.01,2013-06-07 06:56:00,
2013-06-07 03:01:00,56.3,55.5,30.03,NNE,31,0.0,0.0,97,0.00,,-RA,0.04,VWS V13.01,2013-06-07 07:01:00,
2013-06-07 03:06:00,56.2,55.4,30.02,NNE,31,0.0,0.0,97,0.00,,-RA,0.04,VWS V13.01,2013-06-07 07:06:00,
2013-06-07 03:11:00,56.1,55.3,30.02,NNE,31,0.0,0.0,97,0.00,,-RA,0.04,VWS V13.01,2013-06-07 07:11:00,
2013-06-07 03:16:00,56.0,55.2,30.02,NNE,31,0.0,0.0,97,0.00,,-RA,0.04,VWS V13.01,2013-06-07 07:16:00,
2013-06-07 03:21:00,56.0,55.2,30.01,NNE,31,0.0,0.0,97,0.00,,-RA,0.04,VWS V13.01,2013-06-07 07:21:00,
2013-06-07 03:26:00,55.9,55.1,30.01,NNE,31,0.0,0.0,97,0.00,,-RA,0.04,VWS V13.01,2013-06-07 07:26:00,
2013-06-07 03:31:00,55.8,55.0,30.01,NNE,31,0.0,0.0,97,0.00,,-RA,0.04,VWS V13.01,2013-06-07 07:31:00,
2013-06-07 03:36:00,55.8,55.2,30.01,NNE,31,0.0,1.0,98,0.00,,-RA,0.04,VWS V13.01,2013-06-07 07:36:00,
2013-06-07 03:41:00,55.7,55.2,30.01,West,281,0.0,3.0,98,0.00,,-RA,0.04,VWS V13.01,2013-06-07 07:41:00,
2013-06-07 03:46:00,55.7,55.2,30.01,West,265,0.0,3.0,98,0.00,,OVC090,0.04,VWS V13.01,2013-06-07 07:46:00,
2013-06-07 03:51:00,55.6,55.0,30.01,West,265,0.0,3.0,98,0.00,,OVC090,0.04,VWS V13.01,2013-06-07 07:51:00,
2013-06-07 03:57:00,55.6,55.0,30.01,West,265,0.0,3.0,98,0.00,,OVC090,0.04,VWS V13.01,2013-06-07 07:57:00,
2013-06-07 04:02:00,55.5,55.0,30.01,West,265,0.0,0.0,98,0.00,,OVC090,0.04,VWS V13.01,2013-06-07 08:02:00,
2013-06-07 04:07:00,55.5,55.0,30.01,West,265,0.0,0.0,98,0.00,,OVC090,0.04,VWS V13.01,2013-06-07 08:07:00,
2013-06-07 04:12:00,55.5,55.0,30.01,West,265,0.0,0.0,98,0.00,,OVC090,0.04,VWS V13.01,2013-06-07 08:12:00,
2013-06-07 04:17:00,55.4,54.8,30.02,SW,233,0.0,0.0,98,0.00,,OVC090,0.04,VWS V13.01,2013-06-07 08:17:00,
2013-06-07 04:22:00,55.4,54.8,30.02,SW,233,0.0,0.0,98,0.00,,OVC090,0.04,VWS V13.01,2013-06-07 08:22:00,
2013-06-07 04:27:00,55.3,54.8,30.02,SW,233,0.0,0.0,98,0.00,,OVC090,0.04,VWS V13.01,2013-06-07 08:27:00,
2013-06-07 04:32:00,55.3,54.8,30.02,SW,233,0.0,0.0,98,0.00,,OVC090,0.04,VWS V13.01,2013-06-07 08:32:00,
2013-06-07 04:37:00,55.3,54.8,30.02,SW,233,0.0,0.0,98,0.00,,OVC090,0.04,VWS V13.01,2013-06-07 08:37:00,
2013-06-07 04:42:00,55.3,54.8,30.02,SW,233,0.0,0.0,98,0.00,,OVC090,0.04,VWS V13.01,2013-06-07 08:42:00,
2013-06-07 04:47:00,55.2,54.7,30.02,SW,233,0.0,0.0,98,0.00,,OVC070,0.04,VWS V13.01,2013-06-07 08:47:00,
2013-06-07 04:53:00,55.2,54.7,30.02,SW,233,0.0,0.0,98,0.00,,OVC070,0.04,VWS V13.01,2013-06-07 08:53:00,
2013-06-07 04:58:00,55.2,54.7,30.02,SW,233,0.0,0.0,98,0.00,,OVC070,0.04,VWS V13.01,2013-06-07 08:58:00,
2013-06-07 05:03:00,55.1,54.5,30.02,SW,233,0.0,0.0,98,0.00,,OVC070,0.04,VWS V13.01,2013-06-07 09:03:00,
2013-06-07 05:08:00,55.0,54.5,30.02,SW,233,0.0,0.0,98,0.00,,OVC070,0.04,VWS V13.01,2013-06-07 09:08:00,
2013-06-07 05:13:00,55.0,54.5,30.02,SW,233,0.0,0.0,98,0.00,,OVC070,0.04,VWS V13.01,2013-06-07 09:13:00,
2013-06-07 05:18:00,54.9,54.3,30.02,SW,233,0.0,0.0,98,0.00,,OVC070,0.04,VWS V13.01,2013-06-07 09:18:00,
2013-06-07 05:23:00,54.8,54.0,30.02,SW,233,0.0,0.0,97,0.00,,OVC070,0.04,VWS V13.01,2013-06-07 09:23:00,
2013-06-07 05:28:00,54.8,54.0,30.02,SW,233,0.0,0.0,97,0.00,,OVC070,0.04,VWS V13.01,2013-06-07 09:28:00,
2013-06-07 05:33:00,54.7,53.9,30.02,SW,233,0.0,0.0,97,0.00,,OVC070,0.04,VWS V13.01,2013-06-07 09:33:00,
2013-06-07 05:38:00,54.7,54.2,30.02,SW,233,0.0,0.0,98,0.00,,OVC070,0.04,VWS V13.01,2013-06-07 09:38:00,
2013-06-07 05:43:00,54.6,53.8,30.02,SW,233,0.0,0.0,97,0.00,,OVC070,0.04,VWS V13.01,2013-06-07 09:43:00,
2013-06-07 05:48:00,54.6,53.8,30.02,SW,233,0.0,0.0,97,0.00,,OVC060,0.04,VWS V13.01,2013-06-07 09:48:00,
2013-06-07 05:53:00,54.5,54.0,30.02,SW,233,0.0,0.0,98,0.00,,OVC060,0.04,VWS V13.01,2013-06-07 09:53:00,
2013-06-07 05:58:00,54.4,53.6,30.02,SW,233,0.0,0.0,97,0.00,,OVC060,0.04,VWS V13.01,2013-06-07 09:58:00,
2013-06-07 06:03:00,54.4,53.8,30.02,SW,233,0.0,0.0,98,0.00,,OVC060,0.04,VWS V13.01,2013-06-07 10:03:00,
2013-06-07 06:09:00,54.4,53.8,30.03,SW,233,0.0,0.0,98,0.00,,OVC060,0.04,VWS V13.01,2013-06-07 10:09:00,
2013-06-07 06:14:00,54.3,53.8,30.02,SW,233,0.0,0.0,98,0.00,,OVC060,0.04,VWS V13.01,2013-06-07 10:14:00,
2013-06-07 06:19:00,54.3,53.5,30.02,SW,233,0.0,0.0,97,0.00,,OVC060,0.04,VWS V13.01,2013-06-07 10:19:00,
2013-06-07 06:24:00,54.2,53.4,30.02,SW,233,0.0,0.0,97,0.00,,OVC060,0.04,VWS V13.01,2013-06-07 10:24:00,
2013-06-07 06:29:00,54.2,53.7,30.02,SW,233,0.0,0.0,98,0.00,,OVC060,0.04,VWS V13.01,2013-06-07 10:29:00,
2013-06-07 06:34:00,54.2,53.7,30.02,SW,233,0.0,0.0,98,0.00,,OVC060,0.04,VWS V13.01,2013-06-07 10:34:00,
2013-06-07 06:39:00,54.2,53.4,30.03,SW,233,0.0,0.0,97,0.00,,OVC060,0.04,VWS V13.01,2013-06-07 10:39:00,
2013-06-07 06:44:00,54.2,53.4,30.02,SW,233,0.0,0.0,97,0.00,,OVC060,0.04,VWS V13.01,2013-06-07 10:44:00,
2013-06-07 06:49:00,54.3,53.8,30.02,SW,233,0.0,0.0,98,0.00,,OVC055,0.04,VWS V13.01,2013-06-07 10:49:00,
2013-06-07 06:54:00,54.4,53.8,30.02,SW,233,0.0,0.0,98,0.00,,OVC055,0.04,VWS V13.01,2013-06-07 10:54:00,
2013-06-07 06:59:00,54.5,54.0,30.02,SW,233,0.0,0.0,98,0.00,,OVC055,0.04,VWS V13.01,2013-06-07 10:59:00,
2013-06-07 07:04:00,54.6,54.0,30.02,SW,233,0.0,0.0,98,0.00,,OVC055,0.04,VWS V13.01,2013-06-07 11:04:00,
2013-06-07 07:09:00,54.7,54.2,30.02,SW,233,0.0,0.0,98,0.00,,OVC055,0.04,VWS V13.01,2013-06-07 11:09:00,
2013-06-07 07:14:00,54.8,54.2,30.02,SW,233,0.0,0.0,98,0.00,,OVC055,0.04,VWS V13.01,2013-06-07 11:14:00,
2013-06-07 07:19:00,54.9,54.3,30.02,SW,233,0.0,0.0,98,0.00,,OVC055,0.05,VWS V13.01,2013-06-07 11:19:00,
2013-06-07 07:24:00,54.9,54.3,30.02,SW,233,0.0,0.0,98,0.01,,OVC055,0.05,VWS V13.01,2013-06-07 11:24:00,
2013-06-07 07:29:00,55.0,54.5,30.02,SW,233,0.0,0.0,98,0.01,,OVC055,0.05,VWS V13.01,2013-06-07 11:29:00,
2013-06-07 07:34:00,55.1,54.5,30.02,SW,233,0.0,0.0,98,0.01,,OVC055,0.05,VWS V13.01,2013-06-07 11:34:00,
2013-06-07 07:40:00,55.2,54.7,30.02,SW,233,0.0,0.0,98,0.01,,OVC055,0.05,VWS V13.01,2013-06-07 11:40:00,
2013-06-07 07:45:00,55.3,54.8,30.02,SW,233,0.0,0.0,98,0.01,,OVC055,0.05,VWS V13.01,2013-06-07 11:45:00,
2013-06-07 07:50:00,55.3,54.5,30.02,SW,233,0.0,0.0,97,0.01,,OVC055,0.05,VWS V13.01,2013-06-07 11:50:00,
2013-06-07 07:55:00,55.4,54.6,30.02,SW,233,0.0,0.0,97,0.01,,OVC055,0.05,VWS V13.01,2013-06-07 11:55:00,
2013-06-07 08:00:00,55.4,54.8,30.02,SW,233,0.0,0.0,98,0.01,,OVC055,0.05,VWS V13.01,2013-06-07 12:00:00,
2013-06-07 08:05:00,55.4,54.8,30.02,SW,233,0.0,0.0,98,0.01,,OVC055,0.05,VWS V13.01,2013-06-07 12:05:00,
2013-06-07 08:10:00,55.4,54.6,30.02,SW,233,0.0,0.0,97,0.01,,OVC055,0.05,VWS V13.01,2013-06-07 12:10:00,
2013-06-07 08:15:00,55.4,54.8,30.02,SW,233,0.0,0.0,98,0.01,,-RA,0.05,VWS V13.01,2013-06-07 12:15:00,
2013-06-07 08:20:00,55.5,55.0,30.02,SW,233,0.0,0.0,98,0.01,,-RA,0.05,VWS V13.01,2013-06-07 12:20:00,
2013-06-07 08:25:00,55.5,55.0,30.02,SW,233,0.0,0.0,98,0.02,,-RA,0.06,VWS V13.01,2013-06-07 12:25:00,
2013-06-07 08:30:00,55.5,54.7,30.02,SW,233,0.0,0.0,97,0.02,,-RA,0.06,VWS V13.01,2013-06-07 12:30:00,
2013-06-07 08:35:00,55.5,55.0,30.02,SW,233,0.0,0.0,98,0.01,,-RA,0.06,VWS V13.01,2013-06-07 12:35:00,
2013-06-07 08:40:00,55.5,55.0,30.02,SW,233,0.0,0.0,98,0.01,,-RA,0.06,VWS V13.01,2013-06-07 12:40:00,
2013-06-07 08:45:00,55.5,54.7,30.02,SW,233,0.0,0.0,97,0.01,,-RA,0.06,VWS V13.01,2013-06-07 12:45:00,
2013-06-07 08:50:00,55.5,54.7,30.03,SW,233,0.0,0.0,97,0.02,,-RA,0.07,VWS V13.01,2013-06-07 12:50:00,
2013-06-07 08:55:00,55.5,54.7,30.03,SW,233,0.0,0.0,97,0.02,,-RA,0.07,VWS V13.01,2013-06-07 12:55:00,
2013-06-07 09:00:00,55.4,54.8,30.02,SW,233,0.0,0.0,98,0.02,,-RA,0.07,VWS V13.01,2013-06-07 13:00:00,
2013-06-07 09:06:00,55.4,54.6,30.03,SW,233,0.0,0.0,97,0.03,,-RA,0.08,VWS V13.01,2013-06-07 13:06:00,
2013-06-07 09:11:00,55.4,54.8,30.02,SW,233,0.0,0.0,98,0.03,,-RA,0.09,VWS V13.01,2013-06-07 13:11:00,
2013-06-07 09:16:00,55.4,54.8,30.02,SW,233,0.0,0.0,98,0.04,,-RA,0.09,VWS V13.01,2013-06-07 13:16:00,
2013-06-07 09:21:00,55.4,54.8,30.02,SW,233,0.0,0.0,98,0.05,,-RA,0.10,VWS V13.01,2013-06-07 13:21:00,
2013-06-07 09:26:00,55.4,54.8,30.02,SW,233,0.0,0.0,98,0.05,,-RA,0.10,VWS V13.01,2013-06-07 13:26:00,
2013-06-07 09:31:00,55.5,55.0,30.02,SW,233,0.0,0.0,98,0.06,,-RA,0.11,VWS V13.01,2013-06-07 13:31:00,
2013-06-07 09:36:00,55.5,55.0,30.02,SW,233,0.0,0.0,98,0.05,,-RA,0.11,VWS V13.01,2013-06-07 13:36:00,
2013-06-07 09:41:00,55.5,55.0,30.02,SW,233,0.0,0.0,98,0.05,,-RA,0.11,VWS V13.01,2013-06-07 13:41:00,
2013-06-07 09:46:00,55.6,55.0,30.02,SW,233,0.0,0.0,98,0.06,,-RA,0.12,VWS V13.01,2013-06-07 13:46:00,
2013-06-07 09:51:00,55.6,55.0,30.02,SW,233,0.0,0.0,98,0.06,,-RA,0.12,VWS V13.01,2013-06-07 13:51:00,
2013-06-07 09:56:00,55.7,55.2,30.02,SW,233,0.0,0.0,98,0.07,,-RA,0.13,VWS V13.01,2013-06-07 13:56:00,
2013-06-07 10:01:00,55.7,55.2,30.02,SW,233,0.0,0.0,98,0.07,,-RA,0.13,VWS V13.01,2013-06-07 14:01:00,
2013-06-07 10:07:00,55.8,55.2,30.02,SW,233,0.0,1.0,98,0.06,,-RA,0.13,VWS V13.01,2013-06-07 14:07:00,
2013-06-07 10:12:00,55.7,55.2,30.02,SW,233,0.0,1.0,98,0.07,,-RA,0.14,VWS V13.01,2013-06-07 14:12:00,
2013-06-07 10:17:00,55.7,55.2,30.02,SW,233,0.0,1.0,98,0.07,,-RA,0.15,VWS V13.01,2013-06-07 14:17:00,
2013-06-07 10:22:00,55.8,55.2,30.02,SW,233,0.0,1.0,98,0.09,,-RA,0.16,VWS V13.01,2013-06-07 14:22:00,
2013-06-07 10:27:00,55.9,55.6,30.02,SW,233,0.0,1.0,99,0.09,,-RA,0.16,VWS V13.01,2013-06-07 14:27:00,
2013-06-07 10:32:00,55.9,55.6,30.03,SW,233,0.0,0.0,99,0.06,,-RA,0.17,VWS V13.01,2013-06-07 14:32:00,
2013-06-07 10:37:00,55.9,55.6,30.02,SW,233,0.0,0.0,99,0.06,,-RA,0.17,VWS V13.01,2013-06-07 14:37:00,
2013-06-07 10:42:00,56.0,55.7,30.02,SW,233,0.0,0.0,99,0.07,,-RA,0.18,VWS V13.01,2013-06-07 14:42:00,
2013-06-07 10:47:00,56.0,55.7,30.02,SW,233,0.0,0.0,99,0.07,,-RA,0.18,VWS V13.01,2013-06-07 14:47:00,
2013-06-07 10:52:00,56.0,55.7,30.02,SW,233,0.0,0.0,99,0.07,,-RA,0.18,VWS V13.01,2013-06-07 14:52:00,
2013-06-07 10:57:00,56.1,55.8,30.02,SW,233,0.0,0.0,99,0.08,,-RA,0.19,VWS V13.01,2013-06-07 14:57:00,
2013-06-07 11:02:00,56.1,55.8,30.02,SW,233,0.0,0.0,99,0.07,,-RA,0.20,VWS V13.01,2013-06-07 15:02:00,
2013-06-07 11:07:00,56.2,55.9,30.02,SW,233,0.0,0.0,99,0.08,,-RA,0.21,VWS V13.01,2013-06-07 15:07:00,
2013-06-07 11:13:00,56.2,55.9,30.02,SW,233,0.0,0.0,99,0.09,,-RA,0.22,VWS V13.01,2013-06-07 15:13:00,
2013-06-07 11:18:00,56.3,56.0,30.02,SW,233,0.0,1.0,99,0.10,,-RA,0.23,VWS V13.01,2013-06-07 15:18:00,
2013-06-07 11:23:00,56.4,56.1,30.02,SW,233,0.0,1.0,99,0.10,,-RA,0.23,VWS V13.01,2013-06-07 15:23:00,
2013-06-07 11:28:00,56.5,56.2,30.02,SW,233,0.0,1.0,99,0.11,,-RA,0.24,VWS V13.01,2013-06-07 15:28:00,
2013-06-07 11:33:00,56.6,56.3,30.02,SW,233,0.0,1.0,99,0.08,,-RA,0.25,VWS V13.01,2013-06-07 15:33:00,
2013-06-07 11:38:00,56.6,56.3,30.02,SW,233,0.0,1.0,99,0.09,,-RA,0.26,VWS V13.01,2013-06-07 15:38:00,
2013-06-07 11:43:00,56.7,56.4,30.02,SW,233,0.0,1.0,99,0.10,,-RA,0.27,VWS V13.01,2013-06-07 15:43:00,
2013-06-07 11:48:00,56.7,56.4,30.02,SW,233,0.0,1.0,99,0.11,,RA,0.28,VWS V13.01,2013-06-07 15:48:00,
2013-06-07 11:53:00,56.8,56.5,30.02,SW,233,1.0,1.0,99,0.12,,RA,0.29,VWS V13.01,2013-06-07 15:53:00,
2013-06-07 11:58:00,56.9,56.6,30.01,SW,233,0.0,2.0,99,0.14,,RA,0.31,VWS V13.01,2013-06-07 15:58:00,
2013-06-07 12:03:00,57.1,56.8,30.01,SW,233,0.0,1.0,99,0.12,,RA,0.32,VWS V13.01,2013-06-07 16:03:00,
2013-06-07 12:08:00,57.2,56.9,30.01,SW,233,0.0,2.0,99,0.14,,RA,0.34,VWS V13.01,2013-06-07 16:08:00,
2013-06-07 12:13:00,57.4,57.1,30.01,SW,233,0.0,2.0,99,0.15,,RA,0.35,VWS V13.01,2013-06-07 16:13:00,
2013-06-07 12:18:00,57.5,57.2,30.01,SW,233,0.0,2.0,99,0.16,,RA,0.36,VWS V13.01,2013-06-07 16:18:00,
2013-06-07 12:24:00,57.6,57.3,30.01,SW,233,0.0,2.0,99,0.17,,RA,0.37,VWS V13.01,2013-06-07 16:24:00,
2013-06-07 12:29:00,57.7,57.4,30.01,SW,233,0.0,2.0,99,0.18,,RA,0.38,VWS V13.01,2013-06-07 16:29:00,
2013-06-07 12:34:00,57.7,57.4,30.01,West,275,0.0,2.0,99,0.13,,RA,0.39,VWS V13.01,2013-06-07 16:34:00,
2013-06-07 12:39:00,57.7,57.4,30.01,West,275,0.0,2.0,99,0.14,,RA,0.39,VWS V13.01,2013-06-07 16:39:00,
2013-06-07 12:44:00,57.7,57.4,30.01,WSW,258,0.0,4.0,99,0.15,,RA,0.40,VWS V13.01,2013-06-07 16:44:00,
2013-06-07 12:49:00,57.8,57.5,30.01,WSW,258,0.0,4.0,99,0.16,,RA,0.41,VWS V13.01,2013-06-07 16:49:00,
2013-06-07 12:54:00,57.8,57.5,30.01,West,270,0.0,4.0,99,0.17,,RA,0.42,VWS V13.01,2013-06-07 16:54:00,
2013-06-07 12:59:00,57.7,57.4,30.01,West,270,0.0,4.0,99,0.17,,RA,0.42,VWS V13.01,2013-06-07 16:59:00,
2013-06-07 13:04:00,57.7,57.4,30.01,West,271,0.0,1.0,99,0.11,,RA,0.43,VWS V13.01,2013-06-07 17:04:00,
2013-06-07 13:09:00,57.6,57.3,30.01,NW,320,0.0,2.0,99,0.12,,RA,0.44,VWS V13.01,2013-06-07 17:09:00,
2013-06-07 13:14:00,57.6,57.3,30.01,WNW,302,0.0,2.0,99,0.13,,RA,0.45,VWS V13.01,2013-06-07 17:14:00,
2013-06-07 13:19:00,57.5,56.9,30.01,WNW,292,1.0,2.0,98,0.14,,RA,0.46,VWS V13.01,2013-06-07 17:19:00,
2013-06-07 13:24:00,57.4,56.8,30.00,West,279,0.0,3.0,98,0.14,,RA,0.46,VWS V13.01,2013-06-07 17:24:00,
2013-06-07 13:30:00,57.3,57.0,30.00,West,279,0.0,3.0,99,0.15,,RA,0.47,VWS V13.01,2013-06-07 17:30:00,
2013-06-07 13:35:00,57.2,56.9,30.00,West,279,0.0,1.0,99,0.10,,RA,0.48,VWS V13.01,2013-06-07 17:35:00,
2013-06-07 13:40:00,57.2,56.9,30.00,WSW,257,0.0,3.0,99,0.10,,RA,0.48,VWS V13.01,2013-06-07 17:40:00,
2013-06-07 13:45:00,57.1,56.8,30.00,WSW,257,0.0,3.0,99,0.10,,-RA,0.49,VWS V13.01,2013-06-07 17:45:00,
2013-06-07 13:50:00,57.1,56.8,30.00,WSW,257,0.0,3.0,99,0.11,,-RA,0.49,VWS V13.01,2013-06-07 17:50:00,
2013-06-07 13:55:00,57.1,56.8,30.00,WSW,257,0.0,3.0,99,0.11,,-RA,0.49,VWS V13.01,2013-06-07 17:55:00,
2013-06-07 14:00:00,57.1,56.8,30.00,WSW,257,0.0,3.0,99,0.12,,-RA,0.50,VWS V13.01,2013-06-07 18:00:00,
2013-06-07 14:05:00,57.2,56.9,30.00,WSW,257,0.0,0.0,99,0.07,,-RA,0.50,VWS V13.01,2013-06-07 18:05:00,
2013-06-07 14:10:00,57.3,57.0,30.00,WSW,257,0.0,1.0,99,0.07,,-RA,0.50,VWS V13.01,2013-06-07 18:10:00,
2013-06-07 14:15:00,57.3,57.0,30.00,West,264,0.0,1.0,99,0.07,,-RA,0.50,VWS V13.01,2013-06-07 18:15:00,
2013-06-07 14:20:00,57.4,57.1,30.00,West,264,0.0,1.0,99,0.08,,-RA,0.51,VWS V13.01,2013-06-07 18:20:00,
2013-06-07 14:25:00,57.4,57.1,30.00,West,264,0.0,1.0,99,0.08,,-RA,0.51,VWS V13.01,2013-06-07 18:25:00,
2013-06-07 14:31:00,57.4,57.1,30.00,West,264,0.0,1.0,99,0.08,,-RA,0.51,VWS V13.01,2013-06-07 18:31:00,
2013-06-07 14:36:00,57.5,57.2,30.00,West,264,0.0,1.0,99,0.05,,-RA,0.52,VWS V13.01,2013-06-07 18:36:00,
2013-06-07 14:41:00,57.5,57.2,29.99,West,264,0.0,1.0,99,0.05,,-RA,0.52,VWS V13.01,2013-06-07 18:41:00,
2013-06-07 14:46:00,57.5,57.2,30.00,West,264,0.0,1.0,99,0.05,,-RA,0.52,VWS V13.01,2013-06-07 18:46:00,
2013-06-07 14:51:00,57.5,57.2,29.99,West,265,0.0,1.0,99,0.06,,-RA,0.53,VWS V13.01,2013-06-07 18:51:00,
2013-06-07 14:56:00,57.3,57.0,29.99,West,265,0.0,1.0,99,0.06,,-RA,0.53,VWS V13.01,2013-06-07 18:56:00,
2013-06-07 15:01:00,57.3,57.0,29.99,West,265,0.0,1.0,99,0.07,,-RA,0.54,VWS V13.01,2013-06-07 19:01:00,
2013-06-07 15:07:00,57.3,57.0,29.99,West,265,0.0,1.0,99,0.04,,-RA,0.54,VWS V13.01,2013-06-07 19:07:00,
2013-06-07 15:12:00,57.3,57.0,29.98,East,96,0.0,3.0,99,0.05,,-RA,0.55,VWS V13.01,2013-06-07 19:12:00,
2013-06-07 15:17:00,57.3,57.0,29.98,East,96,0.0,3.0,99,0.05,,-RA,0.55,VWS V13.01,2013-06-07 19:17:00,
2013-06-07 15:22:00,57.4,57.1,29.98,East,96,0.0,3.0,99,0.06,,-RA,0.56,VWS V13.01,2013-06-07 19:22:00,
2013-06-07 15:28:00,57.4,57.1,29.98,East,96,0.0,3.0,99,0.07,,-RA,0.57,VWS V13.01,2013-06-07 19:28:00,
2013-06-07 15:33:00,57.4,57.1,29.97,East,96,0.0,1.0,99,0.07,,-RA,0.58,VWS V13.01,2013-06-07 19:33:00,
2013-06-07 15:38:00,57.4,57.1,29.97,East,94,0.0,1.0,99,0.08,,-RA,0.59,VWS V13.01,2013-06-07 19:38:00,
2013-06-07 15:43:00,57.3,57.0,29.97,North,350,0.0,5.0,99,0.09,,-RA,0.60,VWS V13.01,2013-06-07 19:43:00,
2013-06-07 15:48:00,57.1,56.8,29.97,NW,325,0.0,5.0,99,0.11,,-RA,0.62,VWS V13.01,2013-06-07 19:48:00,
2013-06-07 15:53:00,57.1,56.8,29.97,NW,325,0.0,5.0,99,0.12,,-RA,0.63,VWS V13.01,2013-06-07 19:53:00,
2013-06-07 15:58:00,56.9,56.3,29.96,NW,325,0.0,5.0,98,0.14,,-RA,0.65,VWS V13.01,2013-06-07 19:58:00,
2013-06-07 16:03:00,56.8,56.2,29.96,East,98,0.0,2.0,98,0.13,,-RA,0.67,VWS V13.01,2013-06-07 20:03:00,
2013-06-07 16:09:00,56.6,56.0,29.95,East,98,0.0,2.0,98,0.18,,-RA,0.72,VWS V13.01,2013-06-07 20:09:00,
2013-06-07 16:14:00,56.4,56.1,29.95,East,92,0.0,2.0,99,0.21,,-RA,0.76,VWS V13.01,2013-06-07 20:14:00,
2013-06-07 16:19:00,56.3,55.8,29.95,ENE,78,0.0,4.0,98,0.25,,-RA,0.79,VWS V13.01,2013-06-07 20:19:00,
2013-06-07 16:24:00,56.2,55.7,29.95,NW,320,0.0,4.0,98,0.27,,-RA,0.81,VWS V13.01,2013-06-07 20:24:00,
2013-06-07 16:30:00,56.1,55.8,29.94,ENE,57,0.0,4.0,99,0.28,,-RA,0.83,VWS V13.01,2013-06-07 20:30:00,
2013-06-07 16:35:00,56.0,55.7,29.94,ENE,57,0.0,0.0,99,0.27,,-RA,0.85,VWS V13.01,2013-06-07 20:35:00,
2013-06-07 16:40:00,55.9,55.6,29.94,WNW,286,0.0,3.0,99,0.29,,-RA,0.87,VWS V13.01,2013-06-07 20:40:00,
2013-06-07 16:45:00,55.8,55.5,29.95,WNW,287,0.0,3.0,99,0.31,, +RA,0.89,VWS V13.01,2013-06-07 20:45:00,
2013-06-07 16:50:00,55.8,55.5,29.95,WNW,295,0.0,3.0,99,0.32,, +RA,0.90,VWS V13.01,2013-06-07 20:50:00,
2013-06-07 16:55:00,55.8,55.5,29.95,WNW,295,0.0,3.0,99,0.33,, +RA,0.91,VWS V13.01,2013-06-07 20:55:00,
2013-06-07 17:00:00,55.8,55.5,29.95,NE,45,0.0,3.0,99,0.35,, +RA,0.93,VWS V13.01,2013-06-07 21:00:00,
2013-06-07 17:05:00,55.7,55.4,29.95,NNE,29,0.0,1.0,99,0.28,,RA,0.94,VWS V13.01,2013-06-07 21:05:00,
2013-06-07 17:10:00,55.6,55.3,29.95,NNE,29,1.0,1.0,99,0.29,,RA,0.95,VWS V13.01,2013-06-07 21:10:00,
2013-06-07 17:16:00,55.6,55.3,29.94,NNE,15,0.0,4.0,99,0.31,,RA,0.97,VWS V13.01,2013-06-07 21:16:00,
2013-06-07 17:22:00,55.5,55.2,29.94,NNE,15,0.0,4.0,99,0.31,,RA,0.97,VWS V13.01,2013-06-07 21:22:00,
2013-06-07 17:27:00,55.5,55.2,29.94,North,10,0.0,4.0,99,0.32,,RA,0.98,VWS V13.01,2013-06-07 21:27:00,
2013-06-07 17:32:00,55.4,55.1,29.94,North,10,1.0,1.0,99,0.33,,RA,0.99,VWS V13.01,2013-06-07 21:32:00,
2013-06-07 17:37:00,55.3,55.0,29.94,NNE,33,0.0,2.0,99,0.17,,RA,1.00,VWS V13.01,2013-06-07 21:37:00,
2013-06-07 17:42:00,55.3,55.0,29.94,NNE,33,0.0,2.0,99,0.17,,RA,1.01,VWS V13.01,2013-06-07 21:42:00,
2013-06-07 17:47:00,55.2,54.9,29.94,NNE,24,0.0,2.0,99,0.18,,RA,1.01,VWS V13.01,2013-06-07 21:47:00,
2013-06-07 17:52:00,55.2,54.9,29.94,NNE,24,0.0,2.0,99,0.18,,RA,1.01,VWS V13.01,2013-06-07 21:52:00,
2013-06-07 17:58:00,55.1,54.8,29.94,NNE,24,0.0,2.0,99,0.19,,RA,1.02,VWS V13.01,2013-06-07 21:58:00,
2013-06-07 18:03:00,55.1,54.8,29.94,NE,55,1.0,1.0,99,0.10,,-RA,1.03,VWS V13.01,2013-06-07 22:03:00,
2013-06-07 18:08:00,55.0,54.7,29.94,NW,315,0.0,4.0,99,0.10,,-RA,1.03,VWS V13.01,2013-06-07 22:08:00,
2013-06-07 18:13:00,55.0,54.7,29.94,NE,54,0.0,4.0,99,0.11,,-RA,1.04,VWS V13.01,2013-06-07 22:13:00,
2013-06-07 18:19:00,54.9,54.6,29.94,NE,53,0.0,4.0,99,0.12,,-RA,1.05,VWS V13.01,2013-06-07 22:19:00,
2013-06-07 18:24:00,54.9,54.6,29.94,NE,53,0.0,4.0,99,0.13,,-RA,1.06,VWS V13.01,2013-06-07 22:24:00,
2013-06-07 18:29:00,54.9,54.6,29.94,NE,53,0.0,4.0,99,0.13,,-RA,1.06,VWS V13.01,2013-06-07 22:29:00,
2013-06-07 18:35:00,54.9,54.6,29.94,NE,53,0.0,0.0,99,0.08,,-RA,1.07,VWS V13.01,2013-06-07 22:35:00,
2013-06-07 18:40:00,54.9,54.6,29.93,NNE,18,0.0,1.0,99,0.08,,-RA,1.07,VWS V13.01,2013-06-07 22:40:00,
2013-06-07 18:45:00,54.8,54.5,29.93,NNE,17,0.0,1.0,99,0.10,,-RA,1.09,VWS V13.01,2013-06-07 22:45:00,
2013-06-07 18:51:00,54.7,54.4,29.93,NNE,19,0.0,1.0,99,0.11,,-RA,1.10,VWS V13.01,2013-06-07 22:51:00,
2013-06-07 18:58:00,54.6,54.3,29.93,NNE,19,0.0,1.0,99,0.13,,-RA,1.12,VWS V13.01,2013-06-07 22:58:00,
2013-06-07 19:04:00,54.5,54.2,29.93,NNE,29,0.0,1.0,99,0.10,,-RA,1.13,VWS V13.01,2013-06-07 23:04:00,
2013-06-07 19:11:00,54.4,54.1,29.93,SSW,209,0.0,2.0,99,0.12,,-RA,1.15,VWS V13.01,2013-06-07 23:11:00,
2013-06-07 19:16:00,54.3,54.0,29.93,SSW,209,0.0,2.0,99,0.14,,-RA,1.17,VWS V13.01,2013-06-07 23:16:00,
2013-06-07 19:21:00,54.2,53.9,29.92,SW,215,0.0,2.0,99,0.15,,-RA,1.18,VWS V13.01,2013-06-07 23:21:00,
2013-06-07 19:26:00,54.2,53.9,29.92,SW,215,0.0,2.0,99,0.17,,-RA,1.20,VWS V13.01,2013-06-07 23:26:00,
2013-06-07 19:31:00,54.1,53.8,29.92,SW,215,0.0,2.0,99,0.19,,-RA,1.22,VWS V13.01,2013-06-07 23:31:00,
2013-06-07 19:36:00,54.1,53.8,29.92,SW,215,0.0,1.0,99,0.18,,-RA,1.25,VWS V13.01,2013-06-07 23:36:00,
2013-06-07 19:41:00,54.0,53.7,29.91,SW,215,0.0,1.0,99,0.19,,-RA,1.27,VWS V13.01,2013-06-07 23:41:00,
2013-06-07 19:47:00,53.9,53.6,29.90,SW,215,0.0,1.0,99,0.21,,-RA,1.29,VWS V13.01,2013-06-07 23:47:00,
2013-06-07 19:52:00,53.8,53.5,29.89,SW,215,0.0,1.0,99,0.24,,-RA,1.32,VWS V13.01,2013-06-07 23:52:00,
2013-06-07 19:57:00,53.7,53.4,29.89,NNE,29,0.0,1.0,99,0.26,,-RA,1.33,VWS V13.01,2013-06-07 23:57:00,
2013-06-07 20:02:00,53.7,53.4,29.89,NNE,29,0.0,0.0,99,0.26,,-RA,1.33,VWS V13.01,2013-06-08 00:02:00,
2013-06-07 20:07:00,53.6,53.3,29.89,NNE,29,0.0,1.0,99,0.20,,-RA,1.33,VWS V13.01,2013-06-08 00:07:00,
2013-06-07 20:13:00,53.6,53.3,29.88,WNW,292,0.0,4.0,99,0.20,,-RA,1.33,VWS V13.01,2013-06-08 00:13:00,
2013-06-07 20:18:00,53.6,53.3,29.89,WNW,292,0.0,4.0,99,0.21,,RA,1.34,VWS V13.01,2013-06-08 00:18:00,
2013-06-07 20:24:00,53.6,53.3,29.88,WNW,292,0.0,4.0,99,0.23,,RA,1.36,VWS V13.01,2013-06-08 00:24:00,
2013-06-07 20:29:00,53.6,53.3,29.88,NNE,15,0.0,4.0,99,0.24,,RA,1.38,VWS V13.01,2013-06-08 00:29:00,
2013-06-07 20:34:00,53.5,53.2,29.88,NNE,15,0.0,0.0,99,0.17,,RA,1.40,VWS V13.01,2013-06-08 00:34:00,
2013-06-07 20:40:00,53.5,53.2,29.87,NNE,15,0.0,2.0,99,0.19,,RA,1.42,VWS V13.01,2013-06-08 00:40:00,
2013-06-07 20:45:00,53.5,53.2,29.86,ENE,70,1.0,2.0,99,0.22,,RA,1.46,VWS V13.01,2013-06-08 00:45:00,
2013-06-07 20:50:00,53.5,53.2,29.87,ENE,70,0.0,2.0,99,0.26,,RA,1.49,VWS V13.01,2013-06-08 00:50:00,
2013-06-07 20:55:00,53.5,53.2,29.87,ENE,70,0.0,2.0,99,0.28,,RA,1.51,VWS V13.01,2013-06-08 00:55:00,
2013-06-07 21:01:00,53.4,53.4,29.86,ENE,69,0.0,2.0,100,0.32,,RA,1.55,VWS V13.01,2013-06-08 01:01:00,
2013-06-07 21:07:00,53.4,53.4,29.86,ENE,69,0.0,2.0,100,0.25,,RA,1.59,VWS V13.01,2013-06-08 01:07:00,
2013-06-07 21:12:00,53.3,53.3,29.87,ENE,69,0.0,2.0,100,0.30,,RA,1.64,VWS V13.01,2013-06-08 01:12:00,
2013-06-07 21:17:00,53.4,53.4,29.88,ENE,69,0.0,2.0,100,0.34,,RA,1.67,VWS V13.01,2013-06-08 01:17:00,
2013-06-07 21:22:00,53.3,53.3,29.88,ENE,69,0.0,2.0,100,0.36,,RA,1.70,VWS V13.01,2013-06-08 01:22:00,
2013-06-07 21:27:00,53.3,53.3,29.87,ENE,69,0.0,2.0,100,0.42,,RA,1.75,VWS V13.01,2013-06-08 01:27:00,
2013-06-07 21:32:00,53.3,53.3,29.88,ENE,69,0.0,0.0,100,0.42,,RA,1.81,VWS V13.01,2013-06-08 01:32:00,
2013-06-07 21:37:00,53.3,53.3,29.88,ENE,69,0.0,0.0,100,0.45,,RA,1.85,VWS V13.01,2013-06-08 01:37:00,
2013-06-07 21:43:00,53.3,53.3,29.88,ENE,69,0.0,0.0,100,0.49,,RA,1.88,VWS V13.01,2013-06-08 01:43:00,
2013-06-07 21:48:00,53.3,53.3,29.88,ENE,69,0.0,0.0,100,0.52,,RA,1.92,VWS V13.01,2013-06-08 01:48:00,
2013-06-07 21:53:00,53.2,53.2,29.86,ENE,69,0.0,2.0,100,0.55,,RA,1.94,VWS V13.01,2013-06-08 01:53:00,
2013-06-07 21:58:00,53.2,53.2,29.86,ENE,69,0.0,2.0,100,0.56,,RA,1.95,VWS V13.01,2013-06-08 01:58:00,
2013-06-07 22:03:00,53.2,53.2,29.86,ENE,69,0.0,1.0,100,0.42,, +RA,1.97,VWS V13.01,2013-06-08 02:03:00,
2013-06-07 22:08:00,53.2,53.2,29.86,ENE,69,0.0,1.0,100,0.44,, +RA,1.99,VWS V13.01,2013-06-08 02:08:00,
2013-06-07 22:13:00,53.2,53.2,29.85,ENE,69,0.0,1.0,100,0.45,, +RA,2.01,VWS V13.01,2013-06-08 02:13:00,
2013-06-07 22:20:00,53.2,53.2,29.85,West,277,0.0,4.0,100,0.47,, +RA,2.02,VWS V13.01,2013-06-08 02:20:00,
2013-06-07 22:25:00,53.2,53.2,29.85,West,277,0.0,4.0,100,0.47,, +RA,2.02,VWS V13.01,2013-06-08 02:25:00,
2013-06-07 22:31:00,53.2,53.2,29.84,West,277,0.0,4.0,100,0.47,, +RA,2.02,VWS V13.01,2013-06-08 02:31:00,
2013-06-07 22:36:00,53.3,53.3,29.84,West,277,0.0,1.0,100,0.23,, +RA,2.03,VWS V13.01,2013-06-08 02:36:00,
2013-06-07 22:41:00,53.3,53.3,29.84,West,277,0.0,1.0,100,0.23,, +RA,2.03,VWS V13.01,2013-06-08 02:41:00,
2013-06-07 22:46:00,53.3,53.3,29.83,West,277,0.0,1.0,100,0.23,,-RA,2.03,VWS V13.01,2013-06-08 02:46:00,
2013-06-07 22:51:00,53.3,53.3,29.83,West,277,0.0,2.0,100,0.23,,-RA,2.03,VWS V13.01,2013-06-08 02:51:00,
2013-06-07 22:56:00,53.3,53.3,29.83,West,277,0.0,2.0,100,0.24,,-RA,2.04,VWS V13.01,2013-06-08 02:56:00,
2013-06-07 23:02:00,53.3,53.3,29.82,South,173,0.0,0.0,100,0.24,,-RA,2.04,VWS V13.01,2013-06-08 03:02:00,
2013-06-07 23:07:00,53.4,53.4,29.83,South,173,0.0,1.0,100,0.08,,-RA,2.04,VWS V13.01,2013-06-08 03:07:00,
2013-06-07 23:12:00,53.4,53.4,29.81,East,86,0.0,2.0,100,0.08,,-RA,2.04,VWS V13.01,2013-06-08 03:12:00,
2013-06-07 23:17:00,53.4,53.4,29.81,SSE,163,0.0,2.0,100,0.09,,-RA,2.05,VWS V13.01,2013-06-08 03:17:00,
2013-06-07 23:22:00,53.4,53.4,29.81,SSE,163,0.0,2.0,100,0.10,,-RA,2.06,VWS V13.01,2013-06-08 03:22:00,
2013-06-07 23:27:00,53.4,53.4,29.81,SSE,163,0.0,2.0,100,0.10,,-RA,2.06,VWS V13.01,2013-06-08 03:27:00,
2013-06-07 23:32:00,53.4,53.4,29.81,SSW,212,0.0,0.0,100,0.06,,-RA,2.09,VWS V13.01,2013-06-08 03:32:00,
2013-06-07 23:37:00,53.5,53.5,29.80,NE,39,0.0,3.0,100,0.07,,-RA,2.10,VWS V13.01,2013-06-08 03:37:00,
2013-06-07 23:42:00,53.5,53.5,29.81,NNW,348,0.0,3.0,100,0.08,,-RA,2.11,VWS V13.01,2013-06-08 03:42:00,
2013-06-07 23:48:00,53.5,53.5,29.80,NNW,348,0.0,3.0,100,0.08,,-RA,2.11,VWS V13.01,2013-06-08 03:48:00,
2013-06-07 23:53:00,53.5,53.5,29.79,NNW,348,0.0,3.0,100,0.08,,-RA,2.11,VWS V13.01,2013-06-08 03:53:00,
2013-06-07 23:58:00,53.5,53.5,29.79,NNW,348,0.0,3.0,100,0.09,,-RA,2.12,VWS V13.01,2013-06-08 03:58:00,